Regional Weather Roundup
Issued by NWS

Home | Current Version | Previous Version | Text Only | Print | Product List | Glossary Off
Versions: 1 2 3 4 5 6 7 8 9 10 11 12 13 14 15 16 17 18 19 20 21 22 23 24 25 26 27 28 29 30 31 32 33 34 35 36 37 38 39 40 41 42 43 44 45 46 47 48 49 50

000
ASUS43 KFSD 210510
RWRSD

WEATHER ROUNDUP FOR SOUTH DAKOTA
NATIONAL WEATHER SERVICE SIOUX FALLS SD
1100 PM CST THU NOV 20 2014

NOTE: "FAIR" INDICATES FEW OR NO CLOUDS BELOW 12,000 FEET WITH NO
SIGNIFICANT WEATHER AND/OR OBSTRUCTIONS TO VISIBILITY.


SDZ001>005-009-010-012>017-210600-
NORTHWEST AND NORTH CENTRAL SOUTH DAKOTA

CITY           SKY/WX    TMP DP  RH WIND       PRES   REMARKS
BUFFALO          N/A     19  16  88 S6        29.77F WCI  11
FAITH            N/A     15  12  88 S21       29.86F WCI  -2
MOBRIDGE       MOCLDY    22  18  85 S15       29.94F WCI   9
$$

SDZ012>016-024>037-041>051-057-063-072>074-210600-
SOUTHWEST AND SOUTH CENTRAL SOUTH DAKOTA

CITY           SKY/WX    TMP DP  RH WIND       PRES   REMARKS
RAPID CTY ARPT PTCLDY    19  15  84 CALM      29.86F
PIERRE         MOCLDY    18  14  84 SE13      29.96F WCI   5
CUSTER         PTCLDY    34  19  54 SW9       29.88F WCI  27
ELLSWORTH AFB  MOCLDY    19  16  88 NW3       29.84F
PHILIP         PTCLDY    15  12  88 CALM      29.91F
PINE RIDGE     PTCLDY    30  19  63 SW7       29.90F WCI  23
SPEARFISH      FAIR      36  18  48 CALM      29.84F
WINNER         FAIR      27  18  69 S22G30    29.98F WCI  13
$$

SDZ004>011-016>023-039-040-210600-
NORTHEAST SOUTH DAKOTA

CITY           SKY/WX    TMP DP  RH WIND       PRES   REMARKS
ABERDEEN       PTCLDY     6   0  76 S8        30.09F WCI  -7
WATERTOWN      PTCLDY     3  -1  83 S9        30.09F WCI -12
SISSETON         N/A      3  -1  83 S9        30.11F WCI -12
$$

SDZ017-020-022-023-036>040-048>070-210600-
SOUTHEAST SOUTH DAKOTA

CITY           SKY/WX    TMP DP  RH WIND       PRES   REMARKS
SIOUX FALLS    PTCLDY    13   8  81 S8        30.18R WCI   2
HURON          CLEAR     10   6  84 SE8       30.11S WCI  -2
CHAMBERLAIN    CLEAR     17  14  86 SE8       30.04F WCI   7
MITCHELL       CLEAR     13   9  84 S13       30.14F WCI  -2
YANKTON        PTCLDY    16  12  86 SE5       30.19S WCI   9
$$

ABBREVIATIONS USED IN REMARKS
   TC - TEMPERATURE IN CELSIUS
  WCI - WIND CHILL INDEX
   HX - HEAT INDEX
  VSB - VISIBILITY



USA.gov is the U.S. government's official web portal to all federal, state and local government web resources and services.